| time (UTC) | temp F | wind direction | speed MPH | gust MPH | rain 1hr in | rain 24hr in | rain mn in | humidity % | barometer mb |
| 20260509143055 | 85 | 2.0 | 4.0 | 0.00 | 0.00 | 0.00 | 20 | 949.1 | |
| 20260509141551 | 85 | 188 | 0.0 | 1.0 | 0.00 | 0.00 | 0.00 | 20 | 949.0 |
| 20260509134547 | 81 | 108 | 0.0 | 1.0 | 0.00 | 0.00 | 0.00 | 21 | 948.7 |
| 20260509133046 | 79 | 115 | 0.0 | 2.0 | 0.00 | 0.00 | 0.00 | 21 | 948.6 |
| 20260509131545 | 78 | 88 | 1.0 | 7.0 | 0.00 | 0.00 | 0.00 | 21 | 948.3 |
| 20260509130041 | 77 | 80 | 4.0 | 6.0 | 0.00 | 0.00 | 0.00 | 21 | 948.2 |
| 20260509124541 | 77 | 77 | 2.0 | 5.0 | 0.00 | 0.00 | 0.00 | 21 | 948.1 |
| 20260509123037 | 78 | 85 | 3.0 | 5.0 | 0.00 | 0.00 | 0.00 | 20 | 947.9 |
| 20260509121535 | 79 | 0.0 | 1.0 | 0.00 | 0.00 | 0.00 | 20 | 947.7 | |
| 20260509120037 | 80 | 75 | 0.0 | 2.0 | 0.00 | 0.00 | 0.00 | 19 | 947.6 |
| 20260509114533 | 81 | 86 | 3.0 | 7.0 | 0.00 | 0.00 | 0.00 | 18 | 947.5 |
| 20260509113028 | 81 | 72 | 2.0 | 5.0 | 0.00 | 0.00 | 0.00 | 18 | 947.5 |
| 20260509111528 | 81 | 91 | 1.0 | 3.0 | 0.00 | 0.00 | 0.00 | 18 | 947.5 |
| 20260509110027 | 82 | 108 | 0.0 | 3.0 | 0.00 | 0.00 | 0.00 | 18 | 947.4 |
| 20260509104527 | 82 | 129 | 2.0 | 6.0 | 0.00 | 0.00 | 0.00 | 18 | 947.3 |
| 20260509103024 | 81 | 100 | 3.0 | 6.0 | 0.00 | 0.00 | 0.00 | 18 | 947.3 |
| 20260509101523 | 82 | 70 | 3.0 | 6.0 | 0.00 | 0.00 | 0.00 | 18 | 947.2 |
| 20260509100021 | 82 | 3.0 | 6.0 | 0.00 | 0.00 | 0.00 | 17 | 947.4 | |
| 20260509094526 | 83 | 81 | 1.0 | 5.0 | 0.00 | 0.00 | 0.00 | 17 | 947.5 |
| 20260509093020 | 83 | 88 | 3.0 | 5.0 | 0.00 | 0.00 | 0.00 | 16 | 947.6 |
| 20260509091518 | 84 | 108 | 0.0 | 4.0 | 0.00 | 0.00 | 0.00 | 16 | 947.6 |
| 20260509090015 | 84 | 86 | 0.0 | 5.0 | 0.00 | 0.00 | 0.00 | 16 | 947.5 |
| 20260509084513 | 87 | 83 | 4.0 | 7.0 | 0.00 | 0.00 | 0.00 | 15 | 947.4 |
| 20260509083013 | 87 | 110 | 4.0 | 10.0 | 0.00 | 0.00 | 0.00 | 15 | 947.4 |
| 20260509081514 | 86 | 98 | 5.0 | 9.0 | 0.00 | 0.00 | 0.00 | 15 | 947.4 |
| 20260509080007 | 87 | 110 | 6.0 | 10.0 | 0.00 | 0.00 | 0.00 | 15 | 947.4 |
| 20260509074507 | 87 | 110 | 7.0 | 12.0 | 0.00 | 0.00 | 0.00 | 14 | 947.4 |
| 20260509073015 | 88 | 113 | 3.0 | 6.0 | 0.00 | 0.00 | 0.00 | 13 | 947.4 |
| 20260509071501 | 88 | 134 | 0.0 | 5.0 | 0.00 | 0.00 | 0.00 | 12 | 947.5 |
| 20260509064557 | 89 | 106 | 7.0 | 11.0 | 0.00 | 0.00 | 0.00 | 11 | 947.2 |
| 20260509063101 | 88 | 107 | 6.0 | 9.0 | 0.00 | 0.00 | 0.00 | 12 | 947.2 |
| 20260509061601 | 89 | 105 | 6.0 | 9.0 | 0.00 | 0.00 | 0.00 | 12 | 947.2 |
| 20260509060104 | 90 | 109 | 6.0 | 9.0 | 0.00 | 0.00 | 0.00 | 12 | 947.1 |
| 20260509054611 | 90 | 103 | 6.0 | 9.0 | 0.00 | 0.00 | 0.00 | 12 | 947.1 |
| 20260509053058 | 90 | 108 | 5.0 | 8.0 | 0.00 | 0.00 | 0.00 | 12 | 947.1 |
| 20260509051554 | 92 | 124 | 3.0 | 7.0 | 0.00 | 0.00 | 0.00 | 12 | 947.1 |
| 20260509050057 | 93 | 144 | 4.0 | 7.0 | 0.00 | 0.00 | 0.00 | 11 | 947.1 |
| 20260509044552 | 93 | 148 | 3.0 | 6.0 | 0.00 | 0.00 | 0.00 | 12 | 947.0 |
| 20260509043051 | 94 | 149 | 4.0 | 10.0 | 0.00 | 0.00 | 0.00 | 11 | 946.9 |
| 20260509041551 | 94 | 3.0 | 8.0 | 0.00 | 0.00 | 0.00 | 11 | 946.7 | |
| 20260509040118 | 95 | 183 | 7.0 | 13.0 | 0.00 | 0.00 | 0.00 | 11 | 946.5 |
| 20260509034556 | 95 | 129 | 4.0 | 10.0 | 0.00 | 0.00 | 0.00 | 11 | 946.3 |
| 20260509033052 | 96 | 137 | 5.0 | 7.0 | 0.00 | 0.00 | 0.00 | 10 | 946.2 |
| 20260509031548 | 97 | 114 | 6.0 | 10.0 | 0.00 | 0.00 | 0.00 | 10 | 946.0 |
| 20260509030049 | 97 | 144 | 6.0 | 11.0 | 0.00 | 0.00 | 0.00 | 10 | 945.7 |
| 20260509024549 | 98 | 138 | 5.0 | 12.0 | 0.00 | 0.00 | 0.00 | 10 | 945.6 |
| 20260509023047 | 98 | 146 | 6.0 | 17.0 | 0.00 | 0.00 | 0.00 | 10 | 945.4 |
| 20260509021546 | 100 | 195 | 7.0 | 16.0 | 0.00 | 0.00 | 0.00 | 10 | 945.4 |
| 20260509020045 | 101 | 191 | 6.0 | 13.0 | 0.00 | 0.00 | 0.00 | 10 | 945.3 |
| 20260509014544 | 101 | 203 | 7.0 | 12.0 | 0.00 | 0.00 | 0.00 | 10 | 945.2 |
| 20260509013049 | 101 | 157 | 9.0 | 16.0 | 0.00 | 0.00 | 0.00 | 10 | 945.2 |
| 20260509011554 | 102 | 134 | 4.0 | 13.0 | 0.00 | 0.00 | 0.00 | 10 | 945.3 |
| 20260509010046 | 102 | 230 | 10.0 | 15.0 | 0.00 | 0.00 | 0.00 | 10 | 945.3 |
| 20260509004548 | 102 | 206 | 2.0 | 16.0 | 0.00 | 0.00 | 0.00 | 10 | 945.5 |
| 20260509003040 | 102 | 143 | 6.0 | 11.0 | 0.00 | 0.00 | 0.00 | 10 | 945.5 |
| 20260509001537 | 102 | 240 | 11.0 | 17.0 | 0.00 | 0.00 | 0.00 | 10 | 945.6 |
| 20260509000037 | 103 | 244 | 5.0 | 15.0 | 0.00 | 0.00 | 0.00 | 10 | 945.8 |
| 20260508234534 | 102 | 284 | 4.0 | 16.0 | 0.00 | 0.00 | 0.00 | 10 | 945.9 |
| 20260508233033 | 102 | 277 | 10.0 | 16.0 | 0.00 | 0.00 | 0.00 | 11 | 946.0 |
| 20260508231531 | 102 | 212 | 3.0 | 8.0 | 0.00 | 0.00 | 0.00 | 10 | 946.1 |
| 20260508230030 | 102 | 300 | 3.0 | 11.0 | 0.00 | 0.00 | 0.00 | 10 | 946.3 |
| 20260508224528 | 102 | 220 | 5.0 | 11.0 | 0.00 | 0.00 | 0.00 | 10 | 946.4 |
| 20260508223039 | 102 | 206 | 0.0 | 10.0 | 0.00 | 0.00 | 0.00 | 10 | 946.6 |
| 20260508221524 | 102 | 109 | 1.0 | 4.0 | 0.00 | 0.00 | 0.00 | 9 | 946.9 |
| 20260508220023 | 102 | 215 | 0.0 | 6.0 | 0.00 | 0.00 | 0.00 | 10 | 947.2 |
| 20260508214519 | 100 | 257 | 1.0 | 13.0 | 0.00 | 0.00 | 0.00 | 10 | 947.4 |
| 20260508213017 | 101 | 280 | 1.0 | 9.0 | 0.00 | 0.00 | 0.00 | 10 | 947.6 |
| 20260508211515 | 100 | 184 | 4.0 | 8.0 | 0.00 | 0.00 | 0.00 | 11 | 947.8 |
| 20260508210012 | 100 | 238 | 5.0 | 11.0 | 0.00 | 0.00 | 0.00 | 11 | 948.1 |
| 20260508204520 | 100 | 0.0 | 8.0 | 0.00 | 0.00 | 0.00 | 11 | 948.3 | |
| 20260508203010 | 100 | 4.0 | 6.0 | 0.00 | 0.00 | 0.00 | 11 | 948.4 | |
| 20260508201508 | 99 | 1.0 | 10.0 | 0.00 | 0.00 | 0.00 | 12 | 948.7 | |
| 20260508200005 | 97 | 212 | 1.0 | 11.0 | 0.00 | 0.00 | 0.00 | 13 | 948.9 |
| 20260508194506 | 97 | 213 | 4.0 | 8.0 | 0.00 | 0.00 | 0.00 | 13 | 949.1 |
| 20260508193001 | 95 | 226 | 6.0 | 10.0 | 0.00 | 0.00 | 0.00 | 14 | 949.3 |
| 20260508191602 | 95 | 5.0 | 11.0 | 0.00 | 0.00 | 0.00 | 14 | 949.5 | |
| 20260508190056 | 94 | 5.0 | 9.0 | 0.00 | 0.00 | 0.00 | 14 | 949.6 | |
| 20260508184607 | 93 | 181 | 5.0 | 11.0 | 0.00 | 0.00 | 0.00 | 15 | 949.9 |
| 20260508183052 | 92 | 3.0 | 12.0 | 0.00 | 0.00 | 0.00 | 15 | 950.0 | |
| 20260508181559 | 91 | 244 | 5.0 | 8.0 | 0.00 | 0.00 | 0.00 | 15 | 950.2 |
| 20260508180047 | 90 | 211 | 6.0 | 12.0 | 0.00 | 0.00 | 0.00 | 16 | 950.3 |
| 20260508174545 | 89 | 3.0 | 9.0 | 0.00 | 0.00 | 0.00 | 16 | 950.4 | |
| 20260508173042 | 88 | 197 | 4.0 | 9.0 | 0.00 | 0.00 | 0.00 | 16 | 950.5 |
| 20260508171544 | 87 | 243 | 4.0 | 12.0 | 0.00 | 0.00 | 0.00 | 16 | 950.5 |
| 20260508170042 | 87 | 233 | 5.0 | 10.0 | 0.00 | 0.00 | 0.00 | 16 | 950.5 |
| 20260508164536 | 86 | 3.0 | 7.0 | 0.00 | 0.00 | 0.00 | 16 | 950.6 | |
| 20260508163040 | 85 | 228 | 1.0 | 5.0 | 0.00 | 0.00 | 0.00 | 16 | 950.7 |
| 20260508161533 | 84 | 0.0 | 4.0 | 0.00 | 0.00 | 0.00 | 17 | 950.7 | |
| 20260508160054 | 81 | 219 | 0.0 | 1.0 | 0.00 | 0.00 | 0.00 | 17 | 950.7 |
| 20260508154533 | 80 | 241 | 0.0 | 4.0 | 0.00 | 0.00 | 0.00 | 17 | 950.7 |
| 20260508153037 | 79 | 295 | 2.0 | 5.0 | 0.00 | 0.00 | 0.00 | 17 | 950.7 |
| 20260508151533 | 81 | 283 | 0.0 | 3.0 | 0.00 | 0.00 | 0.00 | 17 | 950.6 |
| 20260508150035 | 83 | 0.0 | 0.0 | 0.00 | 0.00 | 0.00 | 16 | 950.7 | |
| 20260508144526 | 84 | 0.0 | 0.0 | 0.00 | 0.00 | 0.00 | 16 | 950.7 |